This demonstration page uses our WeatherBlox Daily Observations layout. Learn more.

Left ArrowRight Arrow

34.74481, -87.66753

Hourly Observations for February 5, 2020

Temp ( °F °C ) Dew Point ( °F °C ) Humidity (%) Winds ( mph kmh ) Pressure ( in mb ) Visibility ( mi km ) Precip ( " mm )
12:32 am 00:32 Cloudy 66 18.9 62 16.7 87 87 SSW 6 9 29.83 1010 10 16 0.00 0.00
12:53 am 00:53 Cloudy 66 18.9 62 16.7 87 87 SSW 6 9 29.83 1010 10 16 0.00 0.00
1:53 am 01:53 Cloudy with Rain 66 18.9 63 17.2 90 90 SSW 6 9 29.82 1010 5 8 0.00 0.00
2:53 am 02:53 Cloudy with Light Rain 65 18.3 63 17.2 93 93 S 3 6 29.80 1009 4 6 0.00 0.00
2:58 am 02:58 Cloudy with Rain 65 18.3 63 17.2 93 93 SSW 5 7 29.81 1010 3 4 0.00 0.00
3:07 am 03:07 Cloudy with Light Rain 65 18.3 63 17.2 93 93 SSW 5 7 29.80 1009 5 8 0.00 0.00
3:27 am 03:27 Cloudy with Light Rain 65 18.3 63 17.2 93 93 S 6 9 29.80 1009 3 4 0.00 0.00
3:38 am 03:38 Cloudy with Light Rain 65 18.3 64 17.8 97 97 S 3 6 29.80 1009 4 6 0.00 0.00
3:53 am 03:53 Cloudy with Light Rain 65 18.3 63 17.2 93 93 SSE 3 6 29.79 1009 5 8 0.00 0.00
4:17 am 04:17 Cloudy with Light Rain 65 18.3 63 17.2 93 93 SSW 5 7 29.80 1009 4 6 0.00 0.00
4:39 am 04:39 Cloudy with Light Rain 65 18.3 63 17.2 93 93 WSW 5 7 29.80 1009 7 11 0.00 0.00
4:48 am 04:48 Cloudy with Light Rain 64 18 63 17 94 94 N 3 6 29.80 1009 3 5 0.00 0.00
4:53 am 04:53 Cloudy with Light Rain 65 18.3 63 17.2 93 93 Calm 29.80 1009 5 8 0.00 0.00
5:53 am 05:53 Cloudy 62 16.7 59 15 90 90 E 3 6 29.81 1010 10 16 0.01 0.25
6:33 am 06:33 Cloudy with Heavy Rain 63 17.2 61 16.1 93 93 N 6 9 29.81 1010 2 3 0.00 0.00
6:39 am 06:39 Cloudy with Rain 63 17.2 60 15.6 90 90 N 5 7 29.81 1010 3 5 0.00 0.00
6:53 am 06:53 Cloudy with Light Rain 62 16.7 60 15.6 93 93 NNE 6 9 29.80 1009 10 16 0.00 0.00
7:16 am 07:16 Cloudy with Heavy Rain 62 16.7 60 15.6 93 93 E 3 6 29.80 1009 3 4 0.03 0.76
7:26 am 07:26 Cloudy with Heavy Rain 62 16.7 59 15 90 90 E 6 9 29.81 1010 1 2 0.04 1.02
7:34 am 07:34 Cloudy with Heavy Rain 62 16.7 60 15.6 93 93 E 3 6 29.81 1010 1 2 0.05 1.27
7:38 am 07:38 Cloudy with Rain 62 16.7 60 15.6 93 93 Calm 29.82 1010 2 3 0.06 1.52
7:45 am 07:45 Cloudy with Light Rain 62 16.7 60 15.6 93 93 NW 6 9 29.81 1010 6 10 0.07 1.78
7:53 am 07:53 Cloudy with Light Rain 62 16.7 60 15.6 93 93 Calm 29.81 1010 10 16 0.08 2.03
8:12 am 08:12 Cloudy 62 16.7 59 15 90 90 Calm 29.81 1010 10 16 0.03 0.76
8:53 am 08:53 Cloudy with Heavy Rain 62 16.7 60 15.6 93 93 SSE 5 7 29.81 1010 3 4 0.09 2.29
9:03 am 09:03 Cloudy with Light Rain 62 16.7 60 15.6 93 93 Calm 29.81 1010 3 5 0.02 0.51
9:17 am 09:17 Cloudy with Light Rain 62 16.7 60 15.6 93 93 ENE 5 7 29.79 1009 7 11 0.04 1.02
9:50 am 09:50 Cloudy with Nearby Thunderstorms 63 17 61 16 94 94 Calm 29.79 1009 10 16 0.09 2.29
9:53 am 09:53 Cloudy with Nearby Thunderstorms 62 16.7 60 15.6 93 93 Calm 29.80 1009 10 16 0.10 2.54
10:07 am 10:07 Cloudy with Strong Thunderstorms 62 16.7 61 16.1 96 96 ENE 3 6 29.80 1009 3 4 0.02 0.51
10:11 am 10:11 Cloudy with Strong Thunderstorms 62 16.7 60 15.6 93 93 E 5 7 29.80 1009 2 3 0.02 0.51
10:22 am 10:22 Cloudy with Strong Thunderstorms 62 16.7 60 15.6 93 93 Calm 29.80 1009 1 2 0.04 1.02
10:35 am 10:35 Cloudy with Nearby Thunderstorms 63 17.2 61 16.1 93 93 ESE 3 6 29.78 1009 2 3 0.06 1.52
10:53 am 10:53 Cloudy with Thunderstorms 63 17.2 61 16.1 93 93 E 6 9 29.76 1008 3 5 0.09 2.29
11:04 am 11:04 Cloudy with Heavy Rain 63 17.2 62 16.7 97 97 W 7 11 29.78 1009 1 1 0.02 0.51
11:06 am 11:06 Cloudy with Strong Thunderstorms 63 17.2 62 16.7 97 97 VRB 6 9 29.76 1008 1 1 0.03 0.76
11:19 am 11:19 Cloudy with Strong Thunderstorms 63 17.2 62 16.7 97 97 VRB 6 9 29.76 1008 1 2 0.05 1.27
11:33 am 11:33 Cloudy with Nearby Thunderstorms 63 17.2 61 16.1 93 93 SW 10 17 29.75 1008 1 2 0.08 2.03
11:39 am 11:39 Cloudy with Nearby Thunderstorms 63 17.2 60 15.6 90 90 SW 10 17 29.76 1008 2 3 0.10 2.54
11:53 am 11:53 Cloudy with Heavy Rain 62 16.7 60 15.6 93 93 WSW 6 9 29.73 1007 2 3 0.13 3.30
12:00 pm 12:00 Cloudy with Heavy Rain 62 16.7 60 15.6 93 93 SSW 6 9 29.73 1007 1 2 0.02 0.51
12:11 pm 12:11 Cloudy with Light Rain 62 16.7 60 15.6 93 93 S 6 9 29.71 1006 3 5 0.05 1.27
12:22 pm 12:22 Cloudy with Light Rain 63 17.2 60 15.6 90 90 S 5 7 29.71 1006 6 10 0.08 2.03
12:36 pm 12:36 Cloudy with Heavy Rain 63 17.2 61 16.1 93 93 SSE 5 7 29.69 1006 2 3 0.11 2.79
12:47 pm 12:47 Cloudy with Light Rain 63 17 61 16 94 94 SSE 6 9 29.69 1006 3 5 0.14 3.56
12:53 pm 12:53 Cloudy with Light Rain 64 17.8 62 16.7 93 93 S 5 7 29.68 1005 9 14 0.16 4.06
1:53 pm 13:53 Cloudy 66 18.9 63 17.2 90 90 SSE 7 11 29.64 1004 10 16 0.15 3.81
2:53 pm 14:53 Cloudy 69 20.6 65 18.3 87 87 S 10 17 29.62 1003 10 16 0.11 2.79
3:16 pm 15:16 Cloudy 70 21.1 65 18.3 84 84 S 12 19 29.61 1003 10 16 0.00 0.00
3:26 pm 15:26 Cloudy 70 21.1 65 18.3 84 84 S 10 17 29.61 1003 10 16 0.00 0.00
3:53 pm 15:53 Cloudy 70 21.1 65 18.3 84 84 S 8 13 29.58 1002 10 16 0.00 0.00
4:44 pm 16:44 Cloudy 68 20 65 18.3 90 90 SSE 12 19 29.54 1000 9 14 0.00 0.00
4:53 pm 16:53 Cloudy with Light Rain 68 20 65 18.3 90 90 SE 12 19 29.52 1000 7 11 0.02 0.51
5:26 pm 17:26 Cloudy with Nearby Thunderstorms 68 20 65 18.3 90 90 SSE 13 20 29.51 999 10 16 0.07 1.78
5:53 pm 17:53 Cloudy with Thunderstorms 68 20 65 18.3 90 90 S 16 26 29.52 1000 8 13 0.12 3.05
6:04 pm 18:04 Cloudy with Nearby Thunderstorms 69 20.6 65 18.3 87 87 W 15 24 29.58 1002 7 11 0.02 0.51
6:09 pm 18:09 Cloudy with Nearby Thunderstorms 67 19.4 64 17.8 91 91 WNW 18 30 29.58 1002 4 6 0.03 0.76
6:16 pm 18:16 Cloudy with Nearby Thunderstorms 66 18.9 63 17.2 90 90 WNW 12 19 29.57 1001 4 6 0.04 1.02
6:27 pm 18:27 Cloudy with Nearby Thunderstorms 65 18.3 63 17.2 93 93 WNW 18 30 29.59 1002 2 2 0.06 1.52
6:31 pm 18:31 Cloudy with Nearby Thunderstorms 65 18.3 63 17.2 93 93 NW 18 30 29.59 1002 1 2 0.07 1.78
6:39 pm 18:39 Cloudy with Nearby Thunderstorms 64 17.8 62 16.7 93 93 NW 17 28 29.60 1002 2 3 0.08 2.03
6:53 pm 18:53 Cloudy with Nearby Thunderstorms 63 17.2 60 15.6 90 90 NW 10 17 29.59 1002 8 13 0.11 2.79
7:14 pm 19:14 Cloudy with Nearby Thunderstorms 61 16.1 59 15 93 93 WNW 10 17 29.62 1003 6 10 0.04 1.02
7:23 pm 19:23 Cloudy with Nearby Thunderstorms 61 16.1 58 14.4 90 90 NNW 8 13 29.61 1003 8 13 0.06 1.52
7:33 pm 19:33 Cloudy with Rain 61 16.1 58 14.4 90 90 VRB 3 6 29.62 1003 8 13 0.08 2.03
7:53 pm 19:53 Cloudy with Light Rain 61 16.1 58 14.4 90 90 NE 3 6 29.56 1001 8 13 0.11 2.79
8:51 pm 20:51 Cloudy with Light Rain 61 16 57 14 88 88 VRB 3 6 29.58 1002 7 11 0.10 2.54
8:53 pm 20:53 Cloudy with Rain 60 15.6 58 14.4 93 93 Calm 29.57 1002 6 10 0.11 2.79
9:06 pm 21:06 Cloudy with Light Rain 60 15.6 57 13.9 90 90 WNW 5 7 29.59 1002 10 16 0.02 0.51
9:40 pm 21:40 Cloudy with Thunderstorms 60 15.6 58 14.4 93 93 Calm 29.58 1002 6 10 0.07 1.78
9:49 pm 21:49 Cloudy with Nearby Thunderstorms 61 16 57 14 88 88 NNW 3 6 29.57 1001 4 6 0.09 2.29
9:53 pm 21:53 Cloudy with Nearby Thunderstorms 60 15.6 58 14.4 93 93 WSW 3 6 29.57 1001 4 6 0.09 2.29
10:05 pm 22:05 Cloudy with Rain 59 15 57 13.9 93 93 W 9 15 29.59 1002 5 8 0.02 0.51
10:22 pm 22:22 Cloudy with Nearby Thunderstorms 59 15 57 13.9 93 93 WNW 6 9 29.58 1002 5 8 0.05 1.27
10:37 pm 22:37 Cloudy 59 15 57 13.9 93 93 Calm 29.56 1001 10 16 0.07 1.78
10:53 pm 22:53 Cloudy 59 15 56 13.3 90 90 Calm 29.55 1001 10 16 0.10 2.54
11:06 pm 23:06 Cloudy with Light Rain 59 15 56 13.3 90 90 Calm 29.54 1000 10 16 0.02 0.51
11:30 pm 23:30 Cloudy with Light Rain 59 15 57 13.9 93 93 SE 3 6 29.53 1000 10 16 0.05 1.27
11:53 pm 23:53 Cloudy 58 14.4 57 13.9 97 97 WNW 5 7 29.52 1000 9 14 0.09 2.29

Powered by AerisWeather